La Push, WA

8:57 PM PST on February 12, 2016 (GMT -0800)
Quillayute

Weather History for KUIL - October, 2012

Change the Weather History Date:

Friday, October 12, 2012

  Actual Average Record
Temperature  
Mean Temperature 52 °F 51 °F  
Max Temperature 54 °F 59 °F 72 °F (1986)
Min Temperature 49 °F 42 °F 29 °F (1983)
Degree Days  
Heating Degree Days 13 14  
Month to date heating degree days 156  
Since 1 July heating degree days 781  
Cooling Degree Days 0 0  
Month to date cooling degree days 0  
Year to date cooling degree days 19  
Growing Degree Days 1 (Base 50)    
Moisture  
Dew Point 50 °F    
Average Humidity 91    
Maximum Humidity 94    
Minimum Humidity 82    
Precipitation  
Precipitation 0.82 in 0.31 in 1.94 in (2001)
Month to date precipitation 3.14  
Year to date precipitation 63.68  
Sea Level Pressure  
Sea Level Pressure 29.85 in    
Wind  
Wind Speed 6 mph (SSE)    
Max Wind Speed 13 mph    
Max Gust Speed 22 mph    
Visibility 2 miles    
Events Rain    
T = Trace of Precipitation, MM = Missing Value Source: NWS Daily Summary

Daily Weather History Graph

Daily Weather History Graph

Search for Another Location

Airport or City:

Trip Planner

Search our weather history database for the weather conditions in past years. The results will help you decide how hot, cold, wet, or windy it might be!

Date:

Astronomy

Oct. 12, 2012 Rise Set
Actual Time 7:33 AM PDT 6:34 PM PDT
Civil Twilight 7:02 AM PDT 7:05 PM PDT
Nautical Twilight 6:26 AM PDT 7:41 PM PDT
Astronomical Twilight 5:50 AM PDT 8:17 PM PDT
Moon 4:11 AM PDT (10/12) 4:56 PM PDT (10/12)
Length of Visible Light 12h 02m
Length of Day
11h 00m
Waning Crescent, 10% of the Moon is Illuminated
Oct 12
Waning Crescent
Oct 15
New
Oct 21
First Quarter
Oct 29
Full
Nov 6
Last Quarter

Hourly Weather History & Observations

Time (PDT) Temp. Dew Point Humidity Pressure Visibility Wind Dir Wind Speed Gust Speed Precip Events Conditions
12:53 AM 50.0 °F 45.0 °F 83% 29.82 in 8.0 mi Calm Calm - N/A   Overcast
1:36 AM 50.0 °F 44.6 °F 82% 29.83 in 4.0 mi Calm Calm - 0.00 in   Haze
1:53 AM 48.9 °F 46.0 °F 90% 29.82 in 2.0 mi East 3.5 mph - 0.00 in   Overcast
2:11 AM 48.2 °F 46.4 °F 93% 29.81 in 3.0 mi ESE 4.6 mph - 0.00 in Rain Light Rain
2:53 AM 48.9 °F 46.9 °F 93% 29.81 in 4.0 mi Calm Calm - 0.04 in Rain Light Rain
3:16 AM 50.0 °F 46.4 °F 87% 29.81 in 4.0 mi Calm Calm - 0.04 in Rain Light Rain
3:35 AM 50.0 °F 46.4 °F 87% 29.81 in 3.0 mi Calm Calm - N/A Rain Light Rain
3:53 AM 48.9 °F 46.9 °F 93% 29.81 in 2.5 mi Calm Calm - 0.10 in Rain Rain
4:02 AM 48.2 °F 46.4 °F 93% 29.80 in 2.5 mi SSE 4.6 mph - 0.02 in Rain Rain
4:11 AM 48.2 °F 46.4 °F 93% 29.80 in 4.0 mi SSE 5.8 mph - 0.03 in Rain Light Rain
4:29 AM 50.0 °F 46.4 °F 87% 29.80 in 6.0 mi SSE 5.8 mph - 0.04 in Rain Light Rain
4:40 AM 50.0 °F 46.4 °F 87% 29.80 in 5.0 mi Variable 5.8 mph - 0.04 in   Overcast
4:53 AM 50.0 °F 46.9 °F 89% 29.81 in 4.0 mi Variable 5.8 mph - 0.04 in   Overcast
5:10 AM 50.0 °F 46.4 °F 87% 29.81 in 2.5 mi SSE 4.6 mph - N/A   Overcast
5:17 AM 50.0 °F 46.4 °F 87% 29.81 in 2.0 mi SSE 8.1 mph - 0.00 in Rain Light Rain
5:39 AM 50.0 °F 46.4 °F 87% 29.80 in 1.5 mi SE 9.2 mph - 0.01 in Rain Light Rain
5:53 AM 50.0 °F 48.0 °F 93% 29.81 in 2.0 mi SE 6.9 mph - 0.02 in Rain Light Rain
6:34 AM 50.0 °F 48.2 °F 94% 29.80 in 1.8 mi SSE 8.1 mph - 0.04 in Rain Light Rain
6:53 AM 50.0 °F 48.2 °F 94% 29.80 in 1.5 mi SE 6.9 mph - N/A Rain Rain
7:17 AM 50.0 °F 48.2 °F 94% 29.81 in 3.0 mi SE 6.9 mph - 0.05 in Rain Light Rain
7:53 AM 51.1 °F 48.0 °F 89% 29.81 in 2.0 mi SE 8.1 mph - 0.08 in Rain Light Rain
7:59 AM 51.8 °F 48.2 °F 88% 29.81 in 1.2 mi SE 9.2 mph - 0.03 in Rain Heavy Rain
8:24 AM 51.8 °F 48.2 °F 88% 29.81 in 1.5 mi SE 6.9 mph - 0.06 in Rain Light Rain
8:51 AM 51.8 °F 48.2 °F 88% 29.82 in 1.2 mi SE 8.1 mph - 0.07 in Rain Light Rain
8:53 AM 51.8 °F 48.2 °F 88% 29.82 in 1.2 mi SSE 8.1 mph - N/A Rain Light Rain
9:53 AM 51.8 °F 50.0 °F 94% 29.83 in 1.0 mi SSE 9.2 mph 16.1 mph N/A Rain Light Rain
10:53 AM 52.0 °F 50.0 °F 93% 29.85 in 1.5 mi Variable 6.9 mph 18.4 mph 0.02 in Rain Light Rain
11:31 AM 53.6 °F 50.0 °F 88% 29.85 in 1.2 mi SSE 10.4 mph - 0.01 in Rain Light Rain
11:44 AM 53.6 °F 51.8 °F 94% 29.85 in 1.5 mi SSE 8.1 mph 17.3 mph N/A Rain Light Rain
11:51 AM 53.6 °F 50.0 °F 88% 29.85 in 1.2 mi SSE 10.4 mph 17.3 mph N/A Rain Light Rain
11:53 AM 53.1 °F 50.0 °F 89% 29.86 in 1.2 mi SSE 8.1 mph 17.3 mph 0.01 in Rain Light Rain
12:20 PM 53.6 °F 51.8 °F 94% 29.85 in 1.5 mi SSE 10.4 mph 16.1 mph 0.01 in Rain Light Rain
12:49 PM 53.6 °F 51.8 °F 94% 29.85 in 2.5 mi SSE 8.1 mph 16.1 mph 0.01 in   Overcast
12:53 PM 53.1 °F 51.1 °F 93% 29.86 in 2.5 mi Variable 6.9 mph - 0.01 in   Overcast
1:18 PM 53.6 °F 51.8 °F 94% 29.85 in 1.5 mi SSE 8.1 mph - 0.00 in Rain Light Rain
1:53 PM 54.0 °F 51.1 °F 90% 29.86 in 1.5 mi Variable 5.8 mph 18.4 mph 0.01 in Rain Light Rain
1:58 PM 53.6 °F 51.8 °F 94% 29.85 in 1.0 mi SSE 9.2 mph 18.4 mph 0.01 in Rain Light Rain
2:16 PM 53.6 °F 51.8 °F 94% 29.85 in 1.8 mi SSE 9.2 mph - 0.01 in Rain Light Rain
2:53 PM 53.6 °F 51.8 °F 94% 29.85 in 2.5 mi SSE 4.6 mph - N/A   Overcast
3:06 PM 53.6 °F 51.8 °F 94% 29.85 in 1.5 mi SE 6.9 mph - 0.00 in Rain Light Rain
3:23 PM 53.6 °F 51.8 °F 94% 29.85 in 0.8 mi SSE 8.1 mph - 0.01 in Rain Light Rain
3:30 PM 53.6 °F 51.8 °F 94% 29.85 in 0.8 mi SE 10.4 mph 18.4 mph N/A Rain Light Rain
3:39 PM 53.6 °F 51.8 °F 94% 29.85 in 1.0 mi SSE 8.1 mph - 0.02 in Rain Light Rain
3:46 PM 53.6 °F 51.8 °F 94% 29.85 in 1.2 mi SSE 12.7 mph 17.3 mph 0.03 in Rain Light Rain
3:53 PM 54.0 °F 51.1 °F 90% 29.86 in 2.0 mi Variable 5.8 mph 17.3 mph 0.03 in Rain Light Rain
4:17 PM 53.6 °F 51.8 °F 94% 29.85 in 1.8 mi SSE 10.4 mph 18.4 mph 0.01 in Rain Light Rain
4:26 PM 53.6 °F 51.8 °F 94% 29.86 in 1.2 mi SSE 8.1 mph 20.7 mph 0.01 in Rain Light Rain
4:53 PM 53.1 °F 51.1 °F 93% 29.86 in 1.0 mi SSE 8.1 mph 17.3 mph 0.02 in Rain Light Rain
4:57 PM 53.6 °F 51.8 °F 94% 29.86 in 0.8 mi Variable 5.8 mph 17.3 mph 0.01 in Rain Light Rain
5:11 PM 53.6 °F 51.8 °F 94% 29.86 in 0.8 mi SSE 5.8 mph - 0.03 in Rain Light Rain
5:15 PM 53.6 °F 51.8 °F 94% 29.87 in 1.0 mi Variable 5.8 mph - 0.04 in Rain Light Rain
5:37 PM 53.6 °F 51.8 °F 94% 29.87 in 2.0 mi Calm Calm - 0.05 in Rain Light Rain
5:45 PM 53.6 °F 51.8 °F 94% 29.87 in 3.0 mi SE 9.2 mph - 0.05 in   Overcast
5:51 PM 53.6 °F 50.0 °F 88% 29.87 in 1.8 mi SE 12.7 mph 18.4 mph 0.05 in   Overcast
5:53 PM 53.1 °F 50.0 °F 89% 29.87 in 1.8 mi SSE 8.1 mph 18.4 mph 0.05 in Rain Light Rain
6:15 PM 53.6 °F 51.8 °F 94% 29.87 in 1.2 mi SE 8.1 mph - 0.01 in Rain Light Rain
6:21 PM 53.6 °F 51.8 °F 94% 29.87 in 2.0 mi SSE 6.9 mph - 0.01 in Rain Light Rain
6:27 PM 53.6 °F 51.8 °F 94% 29.87 in 4.0 mi SSE 8.1 mph - 0.01 in   Overcast
6:53 PM 53.6 °F 51.8 °F 94% 29.86 in 3.0 mi SE 8.1 mph - N/A Rain Light Rain
7:07 PM 53.6 °F 50.0 °F 88% 29.86 in 6.0 mi SSE 6.9 mph 17.3 mph 0.00 in   Overcast
7:53 PM 53.1 °F 50.0 °F 89% 29.88 in 4.0 mi SSE 6.9 mph 18.4 mph 0.00 in   Overcast
8:03 PM 53.6 °F 50.0 °F 88% 29.89 in 3.0 mi SSE 8.1 mph - N/A   Overcast
8:10 PM 53.6 °F 50.0 °F 88% 29.89 in 2.0 mi Variable 6.9 mph - 0.00 in Rain Light Rain
8:19 PM 53.6 °F 50.0 °F 88% 29.88 in 1.5 mi SE 6.9 mph - 0.02 in Rain Heavy Rain
8:31 PM 53.6 °F 50.0 °F 88% 29.89 in 2.5 mi SSE 6.9 mph - 0.04 in Rain Light Rain
8:41 PM 53.6 °F 50.0 °F 88% 29.89 in 3.0 mi Variable 6.9 mph 17.3 mph 0.04 in Rain Light Rain
8:53 PM 53.1 °F 51.1 °F 93% 29.90 in 4.0 mi SSE 6.9 mph - 0.05 in   Overcast
9:30 PM 53.6 °F 51.8 °F 94% 29.92 in 5.0 mi SSW 5.8 mph - N/A   Overcast
9:42 PM 53.6 °F 51.8 °F 94% 29.93 in 3.0 mi Variable 4.6 mph - 0.00 in Rain Light Rain
9:50 PM 53.6 °F 51.8 °F 94% 29.93 in 2.5 mi SSE 5.8 mph - N/A Rain Light Rain
9:53 PM 53.1 °F 51.1 °F 93% 29.93 in 2.5 mi SSE 3.5 mph - 0.00 in Rain Light Rain
10:02 PM 53.6 °F 51.8 °F 94% 29.92 in 4.0 mi Variable 3.5 mph - 0.01 in Rain Light Rain
10:23 PM 53.6 °F 51.8 °F 94% 29.93 in 1.8 mi Variable 3.5 mph - 0.02 in Rain Rain
10:34 PM 53.6 °F 51.8 °F 94% 29.93 in 3.0 mi Variable 3.5 mph - N/A Rain Light Rain
10:45 PM 53.6 °F 51.8 °F 94% 29.93 in 2.5 mi SSE 4.6 mph - 0.08 in Rain Light Rain
10:53 PM 53.1 °F 51.1 °F 93% 29.93 in 8.0 mi SSE 6.9 mph - 0.08 in Rain Light Rain
11:53 PM 54.0 °F 52.0 °F 93% 29.96 in 4.0 mi Variable 5.8 mph - 0.02 in Rain Light Rain